M0ZPG Weather Reports


time (UTC)temp
C
wind
direction
speed
KPH
gust
KPH
rain 1hr
cm
rain 24hr
cm
rain mn
cm
humidity
%
barometer
mb
20260503015404 13 208 0.0 3.2 0.00 0.05 0.03 88 1008.7
20260503014505 13 199 0.0 3.2 0.00 0.05 0.03 88 1008.8
20260503013603 13 198 0.0 3.2 0.00 0.05 0.03 88 1008.8
20260503012706 13 198 0.0 1.6 0.00 0.05 0.03 88 1008.9
20260503012013 13 198 0.0 1.6 0.00 0.05 0.03 88 1009.0
20260503010903 13 198 0.0 1.6 0.00 0.05 0.03 88 1009.1
20260503010005 13 202 0.0 3.2 0.00 0.05 0.03 88 1009.1
20260503005615 13 222 0.0 3.2 0.00 0.05 0.03 88 1009.2
20260503004504 13 250 0.0 6.4 0.00 0.05 0.03 88 1009.3
20260503003820 13 249 0.0 6.4 0.00 0.05 0.03 88 1009.2
20260503002704 13 232 0.0 6.4 0.00 0.05 0.03 88 1009.3
20260503001806 13 205 0.0 3.2 0.00 0.05 0.03 88 1009.5
20260503001116 13 208 0.0 4.8 0.03 0.05 0.03 88 1009.5
20260503000006 13 200 1.6 4.8 0.03 0.05 0.03 88 1009.5
20260502235405 13 215 1.6 6.4 0.03 0.05 0.03 87 1009.5
20260502234508 13 180 1.6 6.4 0.03 0.05 0.03 88 1009.6
20260502233815 13 173 1.6 8.0 0.03 0.05 0.03 88 1009.7
20260502232703 13 199 1.6 6.4 0.03 0.05 0.03 87 1009.9
20260502231803 14 231 1.6 4.8 0.03 0.05 0.03 87 1009.9
20260502230908 14 230 0.0 4.8 0.00 0.03 0.00 88 1009.8
20260502230005 14 262 1.6 9.7 0.00 0.03 0.00 88 1009.9
20260502225405 14 260 0.0 4.8 0.00 0.03 0.03 88 1009.8
20260502224506 14 150 0.0 4.8 0.00 0.03 0.03 88 1009.9
20260502222703 14 143 0.0 3.2 0.00 0.03 0.03 87 1010.0
20260502222015 14 143 0.0 3.2 0.00 0.03 0.03 87 1009.9
20260502220215 14 142 0.0 3.2 0.00 0.03 0.03 87 1010.2
20260502214714 14 140 0.0 1.6 0.00 0.03 0.03 87 1009.9
20260502212705 14 118 0.0 4.8 0.00 0.03 0.03 87 1010.0
20260502212016 14 120 1.6 6.4 0.00 0.03 0.03 87 1010.1
20260502210003 14 132 1.6 6.4 0.00 0.03 0.03 86 1010.0
20260502204503 15 119 1.6 8.0 0.00 0.03 0.03 86 1010.4
20260502203605 15 118 1.6 6.4 0.00 0.03 0.03 85 1010.4
20260502202704 15 98 0.0 6.4 0.00 0.03 0.03 85 1010.6
20260502202017 15 98 0.0 4.8 0.00 0.03 0.03 85 1010.5
20260502201119 15 94 1.6 9.7 0.00 0.03 0.03 84 1010.2
20260502200216 15 103 1.6 11.3 0.00 0.03 0.03 84 1010.2
20260502194504 15 115 0.0 3.2 0.00 0.03 0.03 83 1010.6
20260502193606 15 120 1.6 6.4 0.00 0.03 0.03 83 1010.6
20260502192705 15 115 1.6 4.8 0.00 0.03 0.03 82 1010.5
20260502191803 15 143 1.6 6.4 0.00 0.03 0.03 82 1010.4
20260502190005 15 91 1.6 6.4 0.00 0.03 0.03 83 1010.5
20260502185406 15 92 1.6 4.8 0.00 0.03 0.03 83 1010.6
20260502183605 15 92 0.0 4.8 0.00 0.03 0.03 82 1010.6
20260502182704 15 89 1.6 9.7 0.00 0.03 0.03 83 1010.8
20260502181803 15 98 1.6 6.4 0.00 0.03 0.03 83 1010.7
20260502180903 15 81 1.6 6.4 0.00 0.03 0.03 83 1010.9
20260502180217 15 91 1.6 9.7 0.00 0.03 0.03 83 1011.0
20260502170213 15 137 0.0 4.8 0.03 0.03 0.03 82 1011.7
20260502163603 18 130 3.2 14.5 0.00 0.00 0.00 71 1012.3
20260502162703 18 136 3.2 11.3 0.00 0.00 0.00 65 1012.0
20260502161803 19 146 3.2 8.0 0.00 0.00 0.00 64 1011.9
20260502160904 20 136 3.2 12.9 0.00 0.00 0.00 62 1011.7
20260502152015 21 147 3.2 8.0 0.00 0.00 0.00 52 1012.4
20260502150906 22 144 3.2 9.7 0.00 0.00 0.00 52 1012.4
20260502123605 22 178 0.0 4.8 0.00 0.00 0.00 46 1014.7
20260502122703 21 179 0.0 4.8 0.00 0.00 0.00 47 1014.7
20260502121804 21 183 1.6 4.8 0.00 0.00 0.00 45 1014.9
20260502120905 21 208 1.6 4.8 0.00 0.00 0.00 45 1015.0
20260502115406 21 250 1.6 4.8 0.00 0.00 0.00 48 1015.2
20260502114505 21 203 0.0 4.8 0.00 0.00 0.00 51 1015.4
20260502113605 20 191 1.6 9.7 0.00 0.00 0.00 46 1015.6
20260502112705 20 175 1.6 3.2 0.00 0.00 0.00 48 1015.5
20260502111805 20 165 1.6 3.2 0.00 0.00 0.00 50 1015.6
20260502110906 19 157 0.0 3.2 0.00 0.00 0.00 49 1015.5
20260502110004 18 156 1.6 4.8 0.00 0.00 0.00 57 1015.8
20260502105403 18 164 1.6 8.0 0.00 0.00 0.00 60 1016.0
20260502104504 19 180 1.6 4.8 0.00 0.00 0.00 59 1016.2
20260502103603 18 181 1.6 4.8 0.00 0.00 0.00 61 1016.1
20260502102705 18 199 1.6 4.8 0.00 0.00 0.00 62 1016.0
20260502100903 17 272 0.0 4.8 0.00 0.00 0.00 67 1016.4
20260502100218 17 271 0.0 3.2 0.00 0.00 0.00 69 1016.4
20260502090905 15 235 0.0 4.8 0.00 0.00 0.00 75 1016.8
20260502070905 11 237 0.0 4.8 0.00 0.00 0.00 90 1017.4
20260502070003 10 245 0.0 3.2 0.00 0.00 0.00 91 1017.4
20260502065403 10 246 0.0 6.4 0.00 0.00 0.00 91 1017.4
20260502064506 10 248 0.0 4.8 0.00 0.00 0.00 91 1017.4
20260502063605 10 247 0.0 4.8 0.00 0.00 0.00 91 1017.3
20260502062918 10 244 1.6 6.4 0.00 0.00 0.00 92 1017.4
20260502061803 10 179 1.6 4.8 0.00 0.00 0.00 92 1017.3
20260502061118 10 176 0.0 4.8 0.00 0.00 0.00 92 1017.4
20260502060215 10 186 1.6 6.4 0.00 0.00 0.00 91 1017.4
20260502055616 10 205 1.6 4.8 0.00 0.00 0.00 92 1017.4
20260502054505 10 180 0.0 1.6 0.00 0.00 0.00 92 1017.3
20260502053816 10 180 0.0 3.2 0.00 0.00 0.00 92 1017.4
20260502052703 10 0 0.0 0.0 0.00 0.00 0.00 92 1017.3
20260502051803 10 180 0.0 1.6 0.00 0.00 0.00 92 1017.3
20260502050903 10 180 0.0 3.2 0.00 0.00 0.00 92 1017.3
20260502050006 9 180 0.0 1.6 0.00 0.00 0.00 92 1017.3
20260502045403 9 180 0.0 1.6 0.00 0.00 0.00 92 1017.3
20260502044505 9 0 0.0 0.0 0.00 0.00 0.00 92 1017.3
20260502043605 9 180 0.0 1.6 0.00 0.00 0.00 92 1017.2
20260502042705 9 0 0.0 0.0 0.00 0.00 0.00 92 1017.1
20260502041804 9 180 0.0 1.6 0.00 0.00 0.00 91 1017.1
20260502040905 9 0 0.0 0.0 0.00 0.00 0.00 91 1017.2
20260502040005 9 180 0.0 1.6 0.00 0.00 0.00 91 1017.1
20260502035405 10 180 0.0 1.6 0.00 0.00 0.00 91 1017.3
20260502034503 10 180 0.0 1.6 0.00 0.00 0.00 91 1017.4
20260502033813 10 180 0.0 1.6 0.00 0.00 0.00 91 1017.4
20260502032920 10 180 0.0 3.2 0.00 0.00 0.00 91 1017.4
20260502032017 10 180 0.0 3.2 0.00 0.00 0.00 91 1017.5
20260502031114 10 180 0.0 1.6 0.00 0.00 0.00 90 1017.6
20260502030005 10 180 0.0 3.2 0.00 0.00 0.00 90 1017.5
20260502025403 10 180 0.0 3.2 0.00 0.00 0.00 90 1017.5
20260502024506 10 180 0.0 1.6 0.00 0.00 0.00 89 1017.6
20260502023818 10 180 0.0 1.6 0.00 0.00 0.00 89 1017.6
20260502022703 10 180 0.0 1.6 0.00 0.00 0.00 89 1017.6
20260502021805 10 180 0.0 4.8 0.00 0.00 0.00 89 1017.6
20260502020906 10 179 0.0 4.8 0.00 0.00 0.00 89 1017.6
20260502020005 10 175 0.0 4.8 0.00 0.00 0.00 89 1017.7